GAOFEN-1 02

Last updated on Mon Sep 21 2026 00:02:46 GMT+0000 (Coordinated Universal Time)

1 43259U 18031A 26263.58406802 .00000004 00000+0 79916-5 0 9998 2 43259 98.0432 325.7945 0004163 72.6406 287.5259 14.76484643456779
UTC large
Height (km)
Speed (km/s)
/
Latitude / Longitude
Inclination (degrees)
Orbital Period (minutes)
Azimuth
Elevation
Range (km)
Doppler Factor

Next 0 passes for location: London (51.5072 / 0.1276)

No passes found over London.
GAOFEN-1 02